• In Uzbekistan
  • List of Countries
  • For 7 days
  • Water Temperature
  • Satellite Maps
  • Weather Map
  • Weather Widgets
  • user-avatar
    Login

    Hourly Weather Canillo

    Today, 11 December, Sunday

    Time Temperature Precipitation Wind Pressure Humidity
    00:00 -2°C° 0 mm 1 mps 620 mmHg 63%
    01:00 -2°C° 0 mm 1 mps 620 mmHg 58%
    02:00 -2°C° 0 mm 1 mps 620 mmHg 53%
    03:00 -2°C° 0 mm 1 mps 620 mmHg 48%
    04:00 -2°C° 0 mm 1 mps 620 mmHg 49%
    05:00 -2°C° 0 mm 1 mps 620 mmHg 49%
    06:00 -2°C° 0 mm 1 mps 620 mmHg 50%
    07:00 0°C° 0 mm 1 mps 621 mmHg 50%
    08:00 +1°C° 0 mm 1 mps 621 mmHg 50%
    09:00 +3°C° 0 mm 1 mps 622 mmHg 50%
    10:00 +5°C° 0 mm 1 mps 623 mmHg 49%
    11:00 +6°C° 0 mm 1 mps 623 mmHg 48%
    12:00 +7°C° 0 mm 1 mps 623 mmHg 47%
    13:00 +7°C° 0 mm 1 mps 623 mmHg 53%
    14:00 +5°C° 0 mm 2 mps 622 mmHg 59%
    15:00 +4°C° 0 mm 2 mps 622 mmHg 65%
    16:00 +2°C° 0 mm 2 mps 621 mmHg 70%
    17:00 -1°C° 0 mm 2 mps 620 mmHg 75%
    18:00 -3°C° 0 mm 2 mps 619 mmHg 79%
    19:00 -3°C° 0 mm 2 mps 619 mmHg 75%
    20:00 -3°C° 0 mm 2 mps 619 mmHg 70%
    21:00 -3°C° 0 mm 2 mps 620 mmHg 66%
    22:00 -3°C° 0 mm 2 mps 620 mmHg 66%
    23:00 -3°C° 0 mm 2 mps 620 mmHg 66%

    Tomorrow, 12 December, Monday

    Time Temperature Precipitation Wind Pressure Humidity
    00:00 -2°C° 0 mm 2 mps 619 mmHg 66%
    01:00 -2°C° 0 mm 2 mps 619 mmHg 71%
    02:00 -2°C° 0 mm 2 mps 619 mmHg 76%
    03:00 -2°C° 0 mm 2 mps 619 mmHg 81%
    04:00 -2°C° 0 mm 2 mps 619 mmHg 84%
    05:00 -2°C° 0 mm 2 mps 619 mmHg 86%
    06:00 -2°C° 0 mm 2 mps 619 mmHg 88%
    07:00 -1°C° 0 mm 2 mps 620 mmHg 84%
    08:00 +1°C° 0 mm 2 mps 620 mmHg 80%
    09:00 +2°C° 0 mm 2 mps 621 mmHg 76%
    10:00 +3°C° 0 mm 2 mps 621 mmHg 68%
    11:00 +5°C° 0 mm 2 mps 622 mmHg 61%
    12:00 +6°C° 0 mm 2 mps 622 mmHg 54%
    13:00 +5°C° 0 mm 2 mps 622 mmHg 58%
    14:00 +5°C° 0 mm 2 mps 621 mmHg 62%
    15:00 +4°C° 0 mm 2 mps 621 mmHg 66%
    16:00 +2°C° 0 mm 2 mps 620 mmHg 69%
    17:00 -1°C° 0 mm 2 mps 620 mmHg 72%
    18:00 -1°C° 0 mm 1 mps 619 mmHg 75%
    19:00 -1°C° 0 mm 1 mps 619 mmHg 71%
    20:00 -2°C° 0 mm 1 mps 619 mmHg 67%
    21:00 -2°C° 0 mm 1 mps 619 mmHg 62%
    22:00 -2°C° 0 mm 1 mps 619 mmHg 60%
    23:00 -3°C° 0 mm 1 mps 619 mmHg 58%

    Day after tomorrow, 13 December, Tuesday

    Time Temperature Precipitation Wind Pressure Humidity
    00:00 -4°C° 0 mm 0 mps 619 mmHg 56%
    01:00 -4°C° 0 mm 0 mps 619 mmHg 57%
    02:00 -4°C° 0 mm 0 mps 619 mmHg 59%
    03:00 -3°C° 0 mm 1 mps 619 mmHg 61%
    04:00 -3°C° 0 mm 1 mps 619 mmHg 62%
    05:00 -3°C° 0 mm 1 mps 619 mmHg 63%
    06:00 -3°C° 0 mm 1 mps 619 mmHg 64%
    07:00 -1°C° 0 mm 1 mps 620 mmHg 60%
    08:00 +1°C° 0 mm 1 mps 621 mmHg 57%
    09:00 +3°C° 0 mm 1 mps 622 mmHg 53%
    10:00 +4°C° 0 mm 1 mps 623 mmHg 50%
    11:00 +6°C° 0 mm 1 mps 623 mmHg 47%
    12:00 +7°C° 0 mm 1 mps 624 mmHg 43%
    13:00 +6°C° 0 mm 1 mps 623 mmHg 49%
    14:00 +5°C° 0 mm 1 mps 623 mmHg 55%
    15:00 +5°C° 0 mm 1 mps 622 mmHg 61%
    16:00 +3°C° 0 mm 1 mps 621 mmHg 66%
    17:00 0°C° 0 mm 1 mps 620 mmHg 70%
    18:00 -2°C° 0 mm 1 mps 619 mmHg 75%
    19:00 -2°C° 0 mm 1 mps 619 mmHg 71%
    20:00 -2°C° 0 mm 1 mps 620 mmHg 67%
    21:00 -2°C° 0 mm 1 mps 620 mmHg 63%
    22:00 -2°C° 0 mm 1 mps 619 mmHg 61%
    23:00 -2°C° 0 mm 1 mps 619 mmHg 60%

    14 December, Wednesday

    Time Temperature Precipitation Wind Pressure Humidity
    00:00 -2°C° 0 mm 1 mps 619 mmHg 58%
    01:00 -2°C° 0 mm 1 mps 619 mmHg 59%
    02:00 -2°C° 0 mm 1 mps 619 mmHg 60%
    03:00 -2°C° 0 mm 1 mps 618 mmHg 60%
    04:00 -2°C° 0 mm 1 mps 618 mmHg 61%
    05:00 -2°C° 0 mm 1 mps 618 mmHg 63%
    06:00 -2°C° 0 mm 1 mps 618 mmHg 64%
    07:00 -1°C° 0 mm 1 mps 619 mmHg 61%
    08:00 +1°C° 0 mm 1 mps 620 mmHg 59%
    09:00 +2°C° 0 mm 1 mps 620 mmHg 56%
    10:00 +4°C° 0 mm 1 mps 621 mmHg 53%
    11:00 +4°C° 0 mm 2 mps 621 mmHg 51%
    12:00 +5°C° 0 mm 2 mps 621 mmHg 48%
    13:00 +5°C° 0 mm 2 mps 621 mmHg 54%
    14:00 +4°C° 0 mm 2 mps 620 mmHg 60%
    15:00 +4°C° 0 mm 1 mps 620 mmHg 66%
    16:00 +2°C° 0 mm 1 mps 619 mmHg 73%
    17:00 0°C° 0 mm 1 mps 618 mmHg 79%
    18:00 -2°C° 0 mm 1 mps 617 mmHg 86%
    19:00 -2°C° 0 mm 1 mps 617 mmHg 83%
    20:00 -2°C° 0 mm 1 mps 617 mmHg 81%
    21:00 -2°C° 0 mm 1 mps 618 mmHg 78%
    22:00 -2°C° 0 mm 1 mps 617 mmHg 78%
    23:00 -3°C° 0 mm 1 mps 617 mmHg 78%

    15 December, Thursday

    Time Temperature Precipitation Wind Pressure Humidity
    00:00 -3°C° 0 mm 1 mps 617 mmHg 78%
    01:00 -3°C° 0 mm 1 mps 617 mmHg 78%
    02:00 -3°C° 0 mm 1 mps 617 mmHg 77%
    03:00 -3°C° 0 mm 1 mps 616 mmHg 76%
    04:00 -3°C° 0 mm 1 mps 616 mmHg 75%
    05:00 -3°C° 0 mm 1 mps 616 mmHg 73%
    06:00 -3°C° 0 mm 1 mps 617 mmHg 72%
    07:00 -2°C° 0 mm 1 mps 618 mmHg 67%
    08:00 0°C° 0 mm 1 mps 619 mmHg 62%
    09:00 +2°C° 0 mm 1 mps 620 mmHg 57%
    10:00 +3°C° 0 mm 1 mps 620 mmHg 52%
    11:00 +5°C° 0 mm 1 mps 621 mmHg 47%
    12:00 +6°C° 0 mm 1 mps 621 mmHg 42%
    13:00 +5°C° 0 mm 1 mps 620 mmHg 49%
    14:00 +5°C° 0 mm 1 mps 620 mmHg 57%
    15:00 +4°C° 0 mm 1 mps 619 mmHg 64%
    16:00 +2°C° 0 mm 1 mps 619 mmHg 70%
    17:00 0°C° 0 mm 1 mps 618 mmHg 76%
    18:00 -3°C° 0 mm 1 mps 617 mmHg 82%
    19:00 -3°C° 0 mm 1 mps 617 mmHg 82%
    20:00 -3°C° 0 mm 1 mps 617 mmHg 81%
    21:00 -3°C° 0 mm 1 mps 617 mmHg 80%
    22:00 -3°C° 0 mm 1 mps 617 mmHg 81%
    23:00 -5°C° 0 mm 0 mps 617 mmHg 82%

    16 December, Friday

    Time Temperature Precipitation Wind Pressure Humidity
    00:00 -5°C° 0 mm 0 mps 616 mmHg 83%
    01:00 -5°C° 0 mm 0 mps 616 mmHg 82%
    02:00 -5°C° 0 mm 0 mps 616 mmHg 82%
    03:00 -4°C° 0 mm 1 mps 616 mmHg 82%
    04:00 -5°C° 0 mm 0 mps 616 mmHg 82%
    05:00 -5°C° 0 mm 0 mps 615 mmHg 82%
    06:00 -6°C° 0 mm 0 mps 615 mmHg 82%
    07:00 -4°C° 0 mm 0 mps 616 mmHg 76%
    08:00 -2°C° 0 mm 0 mps 617 mmHg 70%
    09:00 0°C° 0 mm 0 mps 618 mmHg 64%
    10:00 +1°C° 0 mm 0 mps 619 mmHg 59%
    11:00 +3°C° 0 mm 0 mps 619 mmHg 54%
    12:00 +5°C° 0 mm 1 mps 620 mmHg 49%
    13:00 +4°C° 0 mm 1 mps 619 mmHg 55%
    14:00 +4°C° 0 mm 1 mps 619 mmHg 62%
    15:00 +3°C° 0 mm 1 mps 619 mmHg 69%
    16:00 +1°C° 0 mm 1 mps 619 mmHg 77%
    17:00 -1°C° 0 mm 1 mps 618 mmHg 85%
    18:00 -3°C° 0 mm 1 mps 618 mmHg 93%
    19:00 -3°C° 0 mm 1 mps 618 mmHg 93%
    20:00 -3°C° 0 mm 1 mps 618 mmHg 93%
    21:00 -3°C° 0 mm 1 mps 619 mmHg 93%
    22:00 -3°C° 0 mm 1 mps 619 mmHg 92%
    23:00 -4°C° 0 mm 1 mps 619 mmHg 91%
    Show more